Abbeville, LA

9:07 AM CDT on September 29, 2016 (GMT -0500)
Abbeville

Weather History for KIYA - May, 2013

Change the Weather History Date:

Wednesday, May 22, 2013

  Actual Average (KARA) Record (KARA)
Temperature  
Mean Temperature 77 °F 78 °F  
Max Temperature 83 °F 87 °F 98 °F (2005)
Min Temperature 71 °F 69 °F 52 °F (1954)
Degree Days  
Heating Degree Days 0 0  
Month to date heating degree days 0  
Since 1 July heating degree days 1408  
Cooling Degree Days 12 13  
Month to date cooling degree days 227  
Year to date cooling degree days 447  
Growing Degree Days 27 (Base 50)    
Moisture  
Dew Point 70 °F    
Average Humidity 76    
Maximum Humidity 88    
Minimum Humidity 61    
Precipitation  
Precipitation 1.32 in 0.18 in 2.85 in (2013)
Month to date precipitation 2.85  
Year to date precipitation 20.10  
Sea Level Pressure  
Sea Level Pressure 29.91 in    
Wind  
Wind Speed 7 mph (SSE)    
Max Wind Speed 25 mph    
Max Gust Speed 32 mph    
Visibility 10 miles    
Events Rain , Thunderstorm    
T = Trace of Precipitation, MM = Missing Value Source: NWS Daily Summary

Daily Weather History Graph

Daily Weather History Graph

Search for Another Location

Airport or City:

Trip Planner

Search our weather history database for the weather conditions in past years. The results will help you decide how hot, cold, wet, or windy it might be!

Date:

Astronomy

May. 22, 2013 Rise Set
Actual Time 6:11 AM CDT 7:59 PM CDT
Civil Twilight 5:44 AM CDT 8:25 PM CDT
Nautical Twilight 5:12 AM CDT 8:57 PM CDT
Astronomical Twilight 4:38 AM CDT 9:31 PM CDT
Moon 5:31 PM CDT (5/22) 4:03 AM CDT (5/22)
Length of Visible Light 14h 41m
Length of Day
13h 48m
Waxing Gibbous, 91% of the Moon is Illuminated
May 22
Waxing Gibbous
May 24
Full
May 31
Last Quarter
Jun 8
New
Jun 16
First Quarter

Hourly Weather History & Observations

Time (CDT) Temp. Heat Index Dew Point Humidity Pressure Visibility Wind Dir Wind Speed Gust Speed Precip Events Conditions
12:15 AM 79.7 °F - 72.0 °F 77% 29.90 in 10.0 mi SSE 6.9 mph - N/A   Overcast
12:35 AM 79.7 °F - 72.1 °F 78% 29.90 in 10.0 mi SSE 6.9 mph - N/A   Overcast
12:55 AM 79.3 °F - 72.1 °F 79% 29.90 in 10.0 mi SSE 6.9 mph - N/A   Overcast
1:15 AM 79.3 °F - 72.0 °F 78% 29.89 in 10.0 mi SSE 6.9 mph - N/A   Overcast
1:35 AM 79.5 °F - 72.0 °F 78% 29.88 in 10.0 mi South 4.6 mph - N/A   Overcast
1:55 AM 78.8 °F - 72.3 °F 80% 29.88 in 10.0 mi SSE 5.8 mph - N/A   Overcast
2:15 AM 79.0 °F - 72.5 °F 80% 29.87 in 10.0 mi South 6.9 mph - N/A Rain , Thunderstorm Light Thunderstorms and Rain
2:35 AM 78.8 °F - 72.7 °F 81% 29.87 in 10.0 mi SSE 6.9 mph - N/A   Overcast
2:55 AM 78.8 °F - 72.5 °F 81% 29.87 in 10.0 mi SSE 8.1 mph - N/A Thunderstorm Overcast
3:15 AM 78.6 °F - 72.5 °F 81% 29.86 in 10.0 mi SSE 6.9 mph - N/A   Mostly Cloudy
3:35 AM 78.4 °F - 72.5 °F 82% 29.86 in 10.0 mi SSE 6.9 mph - N/A Thunderstorm Mostly Cloudy
3:55 AM 78.8 °F - 72.7 °F 81% 29.87 in 10.0 mi SSW 4.6 mph - N/A   Overcast
4:15 AM 78.4 °F - 72.7 °F 82% 29.87 in 10.0 mi SSW 4.6 mph - N/A   Overcast
4:35 AM 77.9 °F - 72.5 °F 83% 29.88 in 10.0 mi South 5.8 mph - N/A   Mostly Cloudy
4:55 AM 78.4 °F - 72.5 °F 82% 29.87 in 10.0 mi SSW 3.5 mph - N/A Thunderstorm Mostly Cloudy
5:15 AM 78.1 °F - 72.5 °F 83% 29.88 in 5.0 mi SSW 6.9 mph - 0.06 in Rain , Thunderstorm Thunderstorms and Rain
5:35 AM 75.6 °F - 70.7 °F 85% 29.88 in 1.5 mi West 6.9 mph - 0.73 in Rain Heavy Rain
5:55 AM 73.8 °F - 66.6 °F 78% 29.90 in 10.0 mi WSW 4.6 mph 9.2 mph 1.24 in Rain , Thunderstorm Light Thunderstorms and Rain
6:15 AM 72.0 °F - 66.6 °F 83% 29.90 in 10.0 mi North 5.8 mph - N/A Thunderstorm Unknown
6:35 AM 71.4 °F - 67.3 °F 87% 29.89 in 10.0 mi SSE 3.5 mph - N/A Thunderstorm Overcast
6:55 AM 72.9 °F - 69.1 °F 88% 29.88 in 10.0 mi South 9.2 mph - 0.03 in Thunderstorm Unknown
7:15 AM 73.0 °F - 69.3 °F 88% 29.87 in 10.0 mi SSE 9.2 mph - N/A Thunderstorm Mostly Cloudy
7:35 AM 75.4 °F - 71.6 °F 88% 29.90 in 10.0 mi South 5.8 mph - N/A Thunderstorm Mostly Cloudy
7:55 AM 76.6 °F - 72.5 °F 87% 29.91 in 10.0 mi Calm Calm - N/A Thunderstorm Mostly Cloudy
8:15 AM 77.0 °F - 72.1 °F 85% 29.87 in 10.0 mi SSE 16.1 mph - N/A Rain Light Rain
8:35 AM 78.3 °F - 73.4 °F 85% 29.86 in 10.0 mi SSE 19.6 mph 25.3 mph N/A   Scattered Clouds
8:55 AM 78.8 °F - 72.5 °F 81% 29.83 in 10.0 mi SSE 25.3 mph 32.2 mph N/A   Scattered Clouds
9:15 AM 79.2 °F - 72.5 °F 80% 29.89 in 10.0 mi South 12.7 mph 21.9 mph N/A Thunderstorm Scattered Clouds
9:35 AM 79.7 °F - 72.0 °F 77% 29.93 in 10.0 mi SW 3.5 mph - N/A   Mostly Cloudy
9:55 AM 79.7 °F - 71.8 °F 77% 29.93 in 10.0 mi SW 9.2 mph - N/A Thunderstorm Thunderstorm
10:15 AM 79.7 °F - 71.6 °F 76% 29.94 in 5.0 mi SW 8.1 mph - 0.05 in Rain , Thunderstorm Thunderstorms and Rain
10:35 AM 80.1 °F 84.2 °F 73.0 °F 79% 29.94 in 10.0 mi SW 9.2 mph - 0.05 in Thunderstorm Thunderstorm
10:55 AM 81.5 °F 86.5 °F 73.0 °F 75% 29.95 in 10.0 mi SW 6.9 mph - 0.05 in   Mostly Cloudy
11:15 AM 82.2 °F 87.3 °F 72.3 °F 72% 29.95 in 10.0 mi SW 8.1 mph - N/A Thunderstorm Overcast
11:35 AM 81.7 °F 85.8 °F 71.1 °F 70% 29.96 in 10.0 mi SSW 9.2 mph - N/A Thunderstorm Overcast
11:55 AM 81.9 °F 86.4 °F 71.8 °F 71% 29.95 in 10.0 mi SSW 8.1 mph - N/A   Overcast
12:15 PM 83.5 °F 88.2 °F 71.1 °F 66% 29.97 in 10.0 mi ESE 10.4 mph - N/A   Mostly Cloudy
12:35 PM 76.3 °F - 67.8 °F 75% 29.96 in 10.0 mi East 10.4 mph 16.1 mph N/A Thunderstorm Overcast
12:55 PM 75.6 °F - 68.0 °F 77% 29.96 in 10.0 mi East 11.5 mph - N/A Rain , Thunderstorm Light Thunderstorms and Rain
1:15 PM 77.9 °F - 68.7 °F 73% 29.95 in 10.0 mi ESE 9.2 mph 17.3 mph N/A Thunderstorm Thunderstorm
1:35 PM 77.2 °F - 66.7 °F 70% 29.95 in 10.0 mi East 9.2 mph 16.1 mph N/A Thunderstorm Mostly Cloudy
1:55 PM 77.9 °F - 66.6 °F 68% 29.95 in 10.0 mi ESE 11.5 mph 17.3 mph N/A   Overcast
2:15 PM 79.0 °F - 68.0 °F 69% 29.94 in 10.0 mi ESE 10.4 mph 16.1 mph N/A Thunderstorm Overcast
2:35 PM 80.6 °F 83.2 °F 68.0 °F 65% 29.93 in 10.0 mi ESE 9.2 mph - N/A   Overcast
2:55 PM 80.8 °F 83.5 °F 67.8 °F 65% 29.93 in 10.0 mi ESE 9.2 mph - N/A   Mostly Cloudy
3:15 PM 81.7 °F 84.7 °F 68.4 °F 64% 29.92 in 10.0 mi SSE 10.4 mph - N/A   Overcast
3:35 PM 83.1 °F 86.6 °F 68.9 °F 62% 29.92 in 10.0 mi SE 9.2 mph - N/A   Mostly Cloudy
3:55 PM 82.4 °F 85.8 °F 68.9 °F 64% 29.92 in 10.0 mi SSE 11.5 mph 16.1 mph N/A   Mostly Cloudy
4:15 PM 83.3 °F 86.9 °F 69.1 °F 62% 29.92 in 10.0 mi SE 9.2 mph - N/A   Scattered Clouds
4:35 PM 83.1 °F 86.6 °F 68.7 °F 62% 29.91 in 10.0 mi SSE 6.9 mph - N/A   Clear
4:55 PM 83.3 °F 86.6 °F 68.4 °F 61% 29.91 in 10.0 mi SE 8.1 mph - N/A   Scattered Clouds
5:15 PM 82.2 °F 85.5 °F 68.7 °F 64% 29.91 in 10.0 mi SSE 8.1 mph - N/A   Mostly Cloudy
5:35 PM 82.0 °F 85.1 °F 68.5 °F 63% 29.91 in 10.0 mi SSE 9.2 mph - N/A   Scattered Clouds
5:55 PM 81.9 °F 84.8 °F 68.2 °F 63% 29.91 in 10.0 mi SE 8.1 mph - N/A   Clear
6:15 PM 81.5 °F 84.1 °F 67.5 °F 62% 29.91 in 10.0 mi SE 9.2 mph - N/A   Clear
6:35 PM 81.5 °F 84.4 °F 68.2 °F 64% 29.91 in 10.0 mi SSE 8.1 mph - N/A   Clear
6:55 PM 80.8 °F 83.6 °F 68.4 °F 66% 29.91 in 10.0 mi SSE 6.9 mph - N/A   Clear
7:15 PM 79.9 °F - 68.9 °F 69% 29.91 in 10.0 mi SSE 9.2 mph - N/A   Clear
7:35 PM 79.2 °F - 68.9 °F 71% 29.91 in 10.0 mi SSE 5.8 mph - N/A   Clear
7:55 PM 78.1 °F - 69.1 °F 74% 29.91 in 10.0 mi SE 3.5 mph - N/A   Clear
8:15 PM 77.5 °F - 68.9 °F 75% 29.92 in 10.0 mi Calm Calm - N/A   Clear
8:35 PM 77.0 °F - 69.6 °F 78% 29.92 in 10.0 mi Calm Calm - N/A   Clear
8:55 PM 76.1 °F - 69.8 °F 81% 29.92 in 10.0 mi Calm Calm - N/A   Clear
9:15 PM 75.7 °F - 70.2 °F 83% 29.93 in 10.0 mi Calm Calm - N/A   Clear
9:35 PM 75.4 °F - 70.0 °F 83% 29.93 in 10.0 mi Calm Calm - N/A   Clear
9:55 PM 74.8 °F - 69.8 °F 84% 29.94 in 10.0 mi Calm Calm - N/A   Clear
10:15 PM 75.0 °F - 70.0 °F 84% 29.95 in 10.0 mi Calm Calm - N/A   Clear
10:35 PM 74.5 °F - 70.0 °F 86% 29.95 in 10.0 mi Calm Calm - N/A   Clear
10:55 PM 74.5 °F - 70.2 °F 86% 29.95 in 10.0 mi Calm Calm - N/A   Clear
11:15 PM 74.5 °F - 70.0 °F 86% 29.96 in 10.0 mi Calm Calm - N/A   Mostly Cloudy
11:35 PM 74.8 °F - 70.3 °F 86% 29.96 in 10.0 mi Calm Calm - N/A   Overcast
11:55 PM 75.2 °F - 70.2 °F 84% 29.96 in 10.0 mi East 3.5 mph - N/A   Overcast